Date,TemperatureHighF,TemperatureAvgF,TemperatureLowF,DewpointHighF,DewpointAvgF,DewpointLowF,HumidityHigh,HumidityAvg,HumidityLow,PressureMaxIn,PressureMinIn,WindSpeedMaxMPH,WindSpeedAvgMPH,GustSpeedMaxMPH,PrecipitationSumIn
2013-1-1,15.0,-1.4,-19.0,10.8,-7.2,-24.0,83,76,67,30.36,30.10,6,2,10,0.00
2013-1-2,17.0,15.2,13.0,13.8,11.4,9.3,88,85,82,30.14,30.02,8,3,11,0.00
2013-1-3,18.0,14.2,9.0,15.1,8.5,1.5,88,78,61,30.28,30.06,12,4,16,0.00
2013-1-4,33.0,16.7,6.0,18.2,10.3,1.7,87,77,53,30.20,30.06,8,2,12,0.00
2013-1-5,24.0,13.2,1.0,16.7,7.8,-2.7,88,79,64,30.17,29.91,5,2,10,0.00
2013-1-6,24.0,15.7,9.0,15.7,8.5,3.2,85,74,51,30.27,30.03,10,3,17,0.00
2013-1-7,37.0,26.9,18.0,23.2,18.9,12.3,83,72,56,30.03,29.90,11,5,19,0.01
2013-1-8,36.0,22.8,6.0,26.3,17.5,2.7,88,80,66,30.06,29.78,11,3,17,0.00
2013-1-9,33.0,27.8,16.0,25.6,19.1,10.9,83,70,54,30.36,29.90,16,5,26,0.02
2013-1-10,40.0,33.5,18.0,30.4,21.8,14.3,90,64,43,30.36,29.77,13,5,20,0.18
2013-1-11,39.0,35.8,33.0,37.1,33.8,30.4,93,92,90,29.77,29.40,9,4,20,0.15
2013-1-12,39.0,17.4,7.0,37.1,11.8,1.0,93,78,67,30.12,29.41,19,6,26,0.00
2013-1-13,7.0,3.8,-1.0,1.9,-1.2,-5.2,84,79,72,30.30,30.10,10,2,11,0.00
2013-1-14,12.0,4.0,-4.0,4.6,-1.9,-7.8,85,76,60,30.45,30.30,10,2,17,0.00
2013-1-15,27.0,16.3,4.0,16.3,8.6,0.5,86,72,50,30.32,29.80,13,4,18,0.00
2013-1-16,32.0,22.6,8.0,28.1,12.9,-5.2,90,67,38,30.34,29.69,14,6,22,0.00
2013-1-17,15.0,7.3,-1.0,4.9,-2.4,-7.1,81,64,54,30.45,30.34,10,2,13,0.00
2013-1-18,37.0,21.7,11.0,27.2,16.1,4.6,87,79,66,30.35,29.77,10,2,12,0.04
2013-1-19,35.0,18.8,1.0,27.2,12.2,-7.7,90,76,51,30.30,29.72,26,6,41,0.01
2013-1-20,3.0,-2.0,-8.0,-6.4,-9.4,-16.0,78,70,59,30.47,30.30,11,4,22,0.00
2013-1-21,-6.0,-11.9,-22.0,-15.7,-20.3,-27.6,75,66,52,30.42,30.33,10,3,19,0.00
2013-1-22,-1.0,-12.0,-27.0,-10.9,-19.8,-32.5,77,68,54,30.50,30.32,10,1,13,0.00
2013-1-23,12.0,0.1,-13.0,2.5,-9.5,-21.4,79,64,44,30.73,30.22,19,4,29,0.00
2013-1-24,9.0,-3.2,-14.0,0.0,-12.4,-21.8,71,64,56,30.78,30.24,8,2,17,0.00
2013-1-25,17.0,11.2,-1.0,10.9,3.4,-6.5,81,71,57,30.40,29.99,16,5,22,0.00
2013-1-26,19.0,6.4,-11.0,9.9,-2.0,-15.4,82,69,53,30.46,30.21,8,2,12,0.00
2013-1-27,35.0,24.3,13.0,26.1,17.7,7.2,88,76,55,30.21,29.90,8,2,12,0.00
2013-1-28,33.0,28.6,23.0,29.6,25.7,20.0,91,89,87,29.97,29.70,0,0,1,0.00
2013-1-29,35.0,30.3,22.0,31.1,26.6,16.2,93,86,73,29.84,29.60,11,3,21,0.07
2013-1-30,22.0,14.7,7.0,16.4,7.8,0.5,82,74,66,29.83,29.73,18,7,21,0.00
2013-1-31,7.0,1.3,-11.0,1.6,-6.7,-19.2,80,69,57,30.34,29.84,16,6,24,0.00
2013-2-1,-1.0,-8.6,-21.0,-7.0,-16.8,-26.4,77,67,50,30.41,30.19,6,1,13,0.00
2013-2-2,9.0,1.5,-14.0,1.7,-5.9,-18.9,82,71,53,30.28,30.07,6,1,10,0.00
2013-2-3,14.0,8.1,2.0,2.1,-0.4,-3.3,82,68,54,30.15,30.06,11,3,16,0.00
2013-2-4,13.0,5.1,-9.0,7.8,-5.5,-14.8,83,62,41,30.17,29.79,9,2,15,0.00
2013-2-5,24.0,15.2,-5.0,17.2,7.7,-9.6,85,73,50,30.18,29.73,13,4,19,0.00
2013-2-6,21.0,11.9,-6.0,17.7,7.4,-10.8,87,82,78,30.20,30.04,8,2,11,0.00
2013-2-7,27.0,23.5,21.0,20.7,18.8,15.2,89,82,73,30.35,30.11,14,4,19,0.00
2013-2-8,27.0,17.3,7.0,16.9,10.5,1.9,88,75,57,30.46,30.30,5,2,10,0.00
2013-2-9,29.0,25.4,14.0,25.2,21.1,9.8,90,83,78,30.30,30.02,13,5,16,0.00
2013-2-10,31.0,27.5,25.0,28.7,24.8,21.4,92,89,86,30.02,29.39,11,4,19,0.00
2013-2-11,30.0,24.7,17.0,28.0,20.1,11.9,92,82,73,30.07,29.42,16,6,19,0.00
2013-2-12,33.0,21.2,6.0,21.0,14.3,2.2,86,75,57,30.08,29.83,10,3,14,0.05
2013-2-13,37.0,27.5,20.0,26.9,21.2,15.7,89,77,61,29.83,29.67,10,2,13,0.05
2013-2-14,30.0,22.7,6.0,25.2,12.8,-2.6,89,68,39,30.24,29.72,16,4,26,0.00
2013-2-15,18.0,9.4,1.0,1.2,-1.1,-5.2,80,63,44,30.37,30.24,13,4,20,0.00
2013-2-16,19.0,4.1,-11.0,5.4,-4.7,-15.7,82,67,47,30.30,30.22,6,1,9,0.00
2013-2-17,27.0,13.8,-11.0,16.3,4.7,-16.2,82,68,55,30.24,29.73,14,4,21,0.00
2013-2-18,32.0,23.6,8.0,24.6,16.2,-0.7,78,73,67,29.91,29.60,19,6,27,0.00
2013-2-19,10.0,3.9,-2.0,-0.7,-7.2,-11.8,72,60,46,30.44,29.91,23,8,27,0.00
2013-2-20,21.0,3.2,-12.0,4.4,-5.8,-17.2,79,67,45,30.56,30.44,11,2,14,0.00
2013-2-21,25.0,10.8,-9.0,14.8,2.7,-13.5,83,71,51,30.59,30.20,11,3,16,0.00
2013-2-22,28.0,22.6,16.0,22.5,18.1,12.3,88,83,76,30.20,29.91,10,3,14,0.00
2013-2-23,35.0,24.7,13.0,23.7,18.4,9.6,90,78,58,30.02,29.88,8,2,11,0.03
2013-2-24,36.0,22.1,9.0,22.4,14.7,4.6,87,74,55,30.18,30.02,7,2,13,0.07
2013-2-25,38.0,21.0,7.0,21.9,13.5,3.2,86,74,51,30.19,30.10,7,1,10,0.00
2013-2-26,39.0,24.0,9.0,26.2,17.3,5.2,88,76,53,30.16,29.98,13,4,19,0.00
2013-2-27,36.0,30.1,27.0,24.3,22.4,19.8,81,73,60,30.10,29.96,14,5,21,0.00
2013-2-28,30.0,26.1,20.0,21.1,17.2,11.8,76,69,62,30.32,30.10,13,4,18,0.00
2013-3-1,30.0,21.6,7.0,16.3,11.8,2.4,81,66,48,30.44,30.31,14,4,16,0.00
2013-3-2,30.0,13.4,-7.0,13.4,3.6,-11.3,85,66,42,30.46,30.24,6,1,8,0.00
2013-3-3,33.0,18.1,1.0,9.8,1.4,-3.7,82,54,24,30.24,30.09,9,2,11,0.00
2013-3-4,30.0,25.7,19.0,19.6,13.7,3.8,83,61,40,30.13,30.06,11,4,20,0.00
2013-3-5,27.0,23.2,16.0,23.1,19.3,11.5,88,85,80,30.37,30.09,10,3,14,0.00
2013-3-6,28.0,16.4,0.0,16.5,9.3,-4.7,88,74,53,30.48,30.37,11,3,17,0.02
2013-3-7,34.0,15.2,-5.0,17.2,5.7,-9.6,85,68,43,30.49,30.37,8,2,10,0.05
2013-3-8,38.0,25.1,7.0,27.4,17.5,2.4,86,73,58,30.41,30.16,9,3,13,0.09
2013-3-9,35.0,33.5,32.0,32.6,29.9,25.2,93,87,70,30.16,29.80,9,2,11,0.20
2013-3-10,33.0,31.5,27.0,31.2,26.9,21.1,93,83,76,30.06,29.87,14,6,19,0.10
2013-3-11,31.0,26.6,24.0,22.7,20.1,17.9,83,76,62,29.96,29.80,11,5,19,0.00
2013-3-12,29.0,22.0,14.0,18.2,11.9,6.8,87,66,41,30.23,29.87,18,6,25,0.00
2013-3-13,33.0,21.3,9.0,13.1,7.6,3.6,85,57,37,30.41,30.23,9,4,14,0.00
2013-3-14,41.0,28.2,20.0,25.9,19.2,10.1,83,70,53,30.30,30.08,8,3,11,0.00
2013-3-15,32.0,28.5,20.0,27.9,21.6,13.9,88,76,55,30.08,29.95,11,4,17,0.03
2013-3-16,24.0,19.2,10.0,11.8,5.5,-2.2,81,55,43,30.33,30.16,14,6,22,0.00
2013-3-17,26.0,12.4,-10.0,11.6,-0.6,-15.7,79,57,36,30.38,29.98,11,3,16,0.00
2013-3-18,27.0,21.0,13.0,24.2,14.1,4.4,89,75,61,29.99,29.65,18,7,30,0.00
2013-3-19,25.0,14.1,7.0,3.5,-0.1,-8.5,74,54,34,30.23,29.83,24,9,28,0.00
2013-3-20,22.0,11.9,3.0,2.9,-2.8,-8.6,62,51,40,30.26,30.14,17,6,23,0.00
2013-3-21,29.0,12.8,-8.0,8.8,0.7,-13.0,81,60,39,30.23,30.10,10,2,13,0.00
2013-3-22,39.0,18.1,-4.0,13.6,5.1,-8.3,85,60,33,30.19,30.09,6,1,10,0.00
2013-3-23,42.0,28.1,14.0,20.6,15.3,7.6,79,60,38,30.23,30.14,7,2,9,0.00
2013-3-24,33.0,28.3,23.0,20.6,18.2,15.3,73,66,58,30.17,30.07,14,4,18,0.00
2013-3-25,39.0,28.8,17.0,17.8,15.0,10.5,76,58,39,30.25,30.13,14,4,21,0.00
2013-3-26,40.0,33.6,29.0,21.7,17.7,14.9,71,53,36,30.33,30.25,10,3,12,0.00
2013-3-27,44.0,33.8,22.0,24.5,18.8,12.1,79,57,31,30.39,30.32,6,2,9,0.00
2013-3-28,48.0,30.3,13.0,29.8,15.8,9.1,88,60,29,30.43,30.29,8,2,10,0.00
2013-3-29,49.0,36.3,23.0,31.7,23.6,16.6,80,61,42,30.34,30.11,11,3,13,0.01
2013-3-30,53.0,41.5,35.0,41.5,34.2,28.2,91,77,46,30.11,29.85,11,4,15,0.29
2013-3-31,38.0,32.5,25.0,30.1,19.8,7.9,86,62,32,30.13,29.81,23,7,29,0.00
2013-4-1,35.0,24.6,15.0,12.3,8.6,5.6,70,52,33,30.29,30.13,18,7,23,0.00
2013-4-2,38.0,25.3,11.0,14.2,9.7,5.2,80,54,31,30.40,30.29,16,4,19,0.00
2013-4-3,43.0,28.9,9.0,27.6,15.5,4.6,86,60,35,30.45,30.07,17,4,24,0.00
2013-4-4,48.0,40.3,28.0,30.9,23.2,13.5,75,52,30,30.23,30.01,19,6,22,0.00
2013-4-5,41.0,31.3,18.0,27.5,16.4,11.4,80,56,35,30.33,30.02,11,3,14,0.00
2013-4-6,44.0,36.2,33.0,31.7,28.8,24.4,91,75,52,30.02,29.62,11,4,16,0.19
2013-4-7,41.0,36.2,33.0,32.0,30.9,28.8,92,82,69,29.99,29.80,6,2,10,0.06
2013-4-8,42.0,37.3,35.0,39.8,34.6,30.7,93,90,84,30.14,29.80,10,3,11,0.59
2013-4-9,43.0,36.2,32.0,33.1,27.3,19.1,90,72,51,30.25,30.09,14,5,26,0.00
2013-4-10,40.0,35.1,30.0,22.7,18.1,11.4,67,51,32,30.27,30.04,18,6,26,0.00
2013-4-11,35.0,31.3,27.0,28.8,22.3,14.5,90,71,43,30.05,29.82,16,7,27,0.01
2013-4-12,37.0,29.9,27.0,29.1,24.7,22.2,89,81,63,29.91,29.76,14,4,16,0.19
2013-4-13,38.0,28.9,20.0,24.6,18.9,13.4,89,68,44,30.05,29.90,11,2,14,0.08
2013-4-14,35.0,28.1,17.0,30.9,22.6,13.0,92,81,52,30.05,29.62,17,5,27,0.08
2013-4-15,39.0,35.1,32.0,32.9,27.9,24.6,92,75,62,29.99,29.60,17,6,26,0.27
2013-4-16,45.0,36.9,28.0,28.5,25.2,19.7,78,64,42,30.38,29.99,13,4,14,0.00
2013-4-17,40.0,33.4,26.0,29.7,25.6,20.1,91,73,60,30.40,30.01,13,4,19,0.03
2013-4-18,33.0,31.3,29.0,30.5,29.2,27.0,94,92,87,30.03,29.56,13,5,19,0.01
2013-4-19,35.0,29.9,19.0,29.5,24.4,14.1,94,81,58,30.04,29.54,24,7,27,0.00
2013-4-20,42.0,27.1,8.0,24.3,12.4,4.4,88,59,29,30.38,30.04,7,2,10,0.27
2013-4-21,40.0,34.9,26.0,37.6,28.2,16.8,91,77,56,30.38,30.08,15,5,22,0.19
2013-4-22,45.0,36.5,31.0,35.9,28.8,20.9,93,76,45,30.28,30.16,13,5,25,0.00
2013-4-23,44.0,35.0,28.0,30.1,22.3,11.9,92,64,33,30.20,30.08,14,6,18,0.17
2013-4-24,48.0,33.8,20.0,32.7,23.4,14.8,85,68,34,30.11,29.91,22,4,29,0.02
2013-4-25,51.0,38.1,26.0,30.4,24.8,19.6,90,63,30,30.24,30.03,13,4,18,0.00
2013-4-26,72.0,53.3,38.0,39.5,32.8,25.2,80,49,22,30.17,30.02,11,4,16,0.11
2013-4-27,76.0,54.9,30.0,43.7,31.3,24.9,86,49,16,30.18,29.92,10,2,16,0.00
2013-4-28,77.0,62.0,49.0,51.0,43.7,41.0,74,54,31,29.92,29.69,19,5,22,0.02
2013-4-29,76.0,59.4,42.0,45.2,36.4,28.4,68,46,19,29.87,29.63,9,3,13,0.00
2013-4-30,73.0,63.0,54.0,55.8,41.4,21.2,75,49,20,29.97,29.45,17,6,26,0.00
2013-5-1,54.0,41.5,34.0,34.3,29.5,23.2,90,64,44,30.54,29.97,12,4,19,0.08
2013-5-2,47.0,38.5,34.0,25.8,23.0,21.3,63,54,41,30.61,30.47,17,5,20,0.00
2013-5-3,35.0,32.2,30.0,29.8,26.9,21.2,89,81,58,30.48,30.24,14,5,19,0.06
2013-5-4,43.0,35.9,31.0,38.1,32.4,27.9,92,87,79,30.26,30.20,11,5,16,0.17
2013-5-5,66.0,47.5,36.0,44.0,37.4,32.2,89,71,44,30.25,30.12,10,4,14,0.00
2013-5-6,77.0,53.8,35.0,45.8,38.8,31.2,88,61,27,30.18,30.03,11,2,13,0.00
2013-5-7,81.0,61.6,41.0,52.5,39.1,32.6,86,51,18,30.11,29.98,11,2,16,0.00
2013-5-8,76.0,61.2,45.0,52.0,43.9,38.3,82,57,29,30.05,29.98,10,2,14,0.02
2013-5-9,57.0,47.5,38.0,50.9,41.6,27.6,91,80,62,30.19,30.03,14,5,26,0.16
2013-5-10,67.0,48.2,30.0,37.1,25.4,17.6,81,48,16,30.20,29.91,11,3,14,0.00
2013-5-11,55.0,43.2,36.0,38.2,25.5,16.6,78,51,34,30.23,29.93,27,10,36,0.01
2013-5-12,63.0,43.5,26.0,24.2,17.7,12.9,71,40,17,30.28,30.14,19,5,24,0.00
2013-5-13,65.0,48.6,28.0,37.3,27.4,18.7,80,47,23,30.18,29.72,17,4,26,0.01
2013-5-14,93.0,65.9,39.0,47.5,38.9,27.2,83,45,11,29.84,29.47,20,5,32,0.00
2013-5-15,82.0,66.0,48.0,44.7,37.4,28.1,71,39,15,29.94,29.69,14,5,29,0.00
2013-5-16,81.0,65.4,46.0,47.1,34.1,22.6,76,38,14,29.99,29.85,13,3,18,0.00
2013-5-17,71.0,61.0,54.0,51.2,40.6,23.7,81,49,23,30.05,29.97,13,4,18,0.00
2013-5-18,77.0,62.1,52.0,63.6,55.1,47.6,92,79,57,30.03,29.83,9,3,15,0.34
2013-5-19,84.0,68.2,54.0,63.4,58.6,51.4,91,74,44,29.85,29.64,13,4,29,0.40
2013-5-20,71.0,58.7,49.0,64.0,54.1,46.2,94,85,65,29.67,29.55,11,4,19,0.16
2013-5-21,51.0,46.7,42.0,46.9,44.2,40.1,93,91,84,29.81,29.60,13,5,16,0.02
2013-5-22,51.0,46.3,42.0,46.3,42.9,40.1,93,88,81,30.07,29.80,15,5,23,0.02
2013-5-23,63.0,50.3,39.0,40.7,31.8,20.1,88,54,22,30.38,30.08,13,5,22,0.01
2013-5-24,69.0,52.2,30.0,41.4,32.0,25.9,88,52,23,30.48,30.24,13,3,15,0.03
2013-5-25,66.0,57.8,52.0,48.2,44.0,38.1,80,61,44,30.31,30.24,11,3,16,0.00
2013-5-26,70.0,57.0,42.0,42.6,36.9,30.1,82,51,26,30.31,30.10,13,3,18,0.00
2013-5-27,62.0,57.6,51.0,50.1,45.0,38.4,75,63,48,30.10,29.89,13,3,16,0.00
2013-5-28,62.0,57.0,53.0,53.2,50.2,46.9,85,78,71,29.90,29.75,8,2,11,0.00
2013-5-29,82.0,65.6,56.0,62.9,56.2,51.9,89,74,43,29.86,29.68,10,3,18,0.00
2013-5-30,80.0,69.4,63.0,65.6,60.0,56.7,91,74,47,29.73,29.55,16,5,23,0.31
2013-5-31,78.0,65.2,58.0,61.0,57.5,52.9,89,78,44,29.61,29.52,19,5,27,0.28
2013-6-1,67.0,56.9,48.0,58.8,51.5,40.8,89,82,72,29.99,29.60,15,4,21,0.05
2013-6-2,67.0,54.2,44.0,41.1,38.9,35.9,81,59,33,30.12,29.99,11,4,17,0.00
2013-6-3,72.0,56.2,36.0,49.3,37.5,32.8,90,55,28,30.11,30.01,7,2,14,0.00
2013-6-4,64.0,56.3,51.0,49.7,43.5,34.4,89,63,41,30.16,30.07,12,3,16,0.00
2013-6-5,55.0,52.6,47.0,53.0,50.2,45.1,93,92,89,30.11,29.98,8,3,14,0.00
2013-6-6,56.0,50.7,46.0,52.2,47.7,44.1,94,90,83,30.08,30.03,8,3,16,0.00
2013-6-7,66.0,55.3,48.0,52.2,48.1,43.4,90,78,55,30.09,29.95,6,1,9,0.00
2013-6-8,73.0,61.4,49.0,57.4,50.2,44.7,90,69,45,29.96,29.91,11,2,15,0.00
2013-6-9,61.0,56.7,54.0,58.7,52.5,48.3,92,86,70,29.95,29.83,12,3,16,0.00
2013-6-10,72.0,61.1,53.0,62.9,56.4,50.7,93,85,64,29.88,29.83,6,2,13,0.00
2013-6-11,81.0,65.9,49.0,64.1,56.0,46.2,92,73,48,29.93,29.84,6,1,11,0.00
2013-6-12,77.0,66.1,54.0,64.0,56.0,46.0,86,71,44,29.96,29.82,8,2,16,0.00
2013-6-13,79.0,65.4,51.0,54.2,48.4,43.7,82,56,35,30.11,29.96,11,3,15,0.00
2013-6-14,79.0,65.0,48.0,58.1,52.1,44.0,89,66,42,30.11,29.92,12,3,17,0.00
2013-6-15,77.0,68.5,57.0,65.6,60.3,52.5,85,76,61,29.94,29.83,10,2,17,0.00
2013-6-16,86.0,68.8,49.0,57.3,48.0,39.3,91,55,20,29.90,29.79,16,4,23,0.00
2013-6-17,76.0,63.3,50.0,58.0,50.7,40.8,88,65,45,30.08,29.83,11,3,15,0.00
2013-6-18,77.0,60.2,43.0,50.7,44.6,38.8,88,60,31,30.16,30.04,8,3,13,0.00
2013-6-19,85.0,67.5,47.0,57.8,52.0,43.0,89,61,32,30.11,29.97,8,3,16,0.00
2013-6-20,86.0,73.2,66.0,65.6,60.8,55.8,88,67,48,30.02,29.93,12,4,16,0.19
2013-6-21,80.0,69.0,58.0,64.8,61.6,54.5,92,78,58,30.09,29.69,23,5,36,0.06
2013-6-22,77.0,68.0,60.0,68.0,62.2,55.1,91,82,71,30.02,29.80,10,3,23,0.01
2013-6-23,83.0,70.3,59.0,68.2,60.9,54.5,91,74,49,29.90,29.69,14,4,23,0.00
2013-6-24,85.0,72.6,56.0,67.9,61.2,52.2,90,70,45,29.93,29.79,10,2,13,0.00
2013-6-25,88.0,74.3,60.0,65.7,62.3,56.1,89,69,43,29.86,29.74,10,2,11,0.00
2013-6-26,88.0,77.2,67.0,77.9,67.5,60.6,89,73,52,29.81,29.68,12,3,37,0.00
2013-6-27,84.0,73.4,61.0,67.2,59.0,50.8,87,64,33,29.82,29.76,18,4,28,0.00
2013-6-28,76.0,66.2,59.0,65.1,59.1,54.2,88,78,59,29.82,29.74,18,4,26,0.00
2013-6-29,76.0,65.9,53.0,63.0,55.0,46.3,92,71,39,30.02,29.78,11,3,20,0.00
2013-6-30,84.0,66.0,49.0,59.0,49.9,44.6,89,62,26,30.14,30.02,10,2,13,0.00
2013-7-1,84.0,68.1,53.0,61.9,53.3,48.3,89,63,32,30.22,30.14,8,2,13,0.00
2013-7-2,84.0,66.5,48.0,54.0,48.5,43.1,85,57,29,30.21,30.08,8,2,11,0.00
2013-7-3,86.0,68.1,49.0,58.4,48.1,43.2,89,55,24,30.11,29.96,8,2,10,0.00
2013-7-4,88.0,73.3,56.0,61.2,55.6,50.2,83,57,32,29.99,29.88,14,3,18,0.00
2013-7-5,88.0,78.4,68.0,60.6,57.5,54.9,64,50,36,29.92,29.80,14,5,22,0.00
2013-7-6,84.0,77.5,71.0,68.1,61.8,57.2,69,59,48,29.88,29.82,11,4,18,0.00
2013-7-7,92.0,78.1,63.0,70.7,65.4,59.7,89,66,48,29.92,29.82,12,3,14,0.43
2013-7-8,83.0,64.9,54.0,68.5,59.5,51.7,93,84,57,30.03,29.92,8,2,11,0.00
2013-7-9,83.0,71.3,64.0,70.8,64.4,59.7,90,80,57,29.98,29.77,11,3,22,0.21
2013-7-10,80.0,66.5,57.0,59.3,54.9,51.5,86,69,39,30.04,29.90,11,4,17,0.00
2013-7-11,85.0,74.9,51.0,64.2,53.7,47.3,89,52,34,30.14,30.03,9,3,13,0.00
2013-7-12,84.0,84.0,84.0,53.3,53.3,53.3,35,35,35,30.03,30.03,5,5,0,0.00
2013-7-13,84.0,84.0,84.0,53.3,53.3,53.3,35,35,35,30.03,30.03,5,5,0,0.00
2013-7-14,84.0,84.0,84.0,53.3,53.3,53.3,35,35,35,30.03,30.03,5,5,0,0.00
2013-7-15,90.0,83.4,74.0,63.7,56.5,53.3,69,41,35,30.19,30.03,6,4,13,0.00
2013-7-16,92.0,81.1,71.0,71.5,66.2,62.6,84,63,41,30.19,30.13,13,3,15,0.00
2013-7-17,94.0,81.8,70.0,69.6,65.6,62.0,84,61,36,30.23,30.09,12,3,18,0.00
2013-7-18,95.0,84.5,73.0,70.8,66.5,62.9,81,58,36,30.10,29.71,21,4,25,0.00
2013-7-19,84.0,77.2,66.0,68.6,61.0,52.3,83,59,36,29.87,29.68,16,5,22,0.07
2013-7-20,80.0,68.6,60.0,59.2,52.2,46.1,83,58,35,30.00,29.85,11,3,13,0.13
2013-7-21,82.0,68.4,53.0,60.5,54.0,44.2,79,61,46,30.00,29.83,8,3,12,0.00
2013-7-22,87.0,72.2,61.0,68.4,59.5,49.5,84,67,38,29.84,29.66,16,4,22,0.00
2013-7-23,78.0,64.0,53.0,51.8,47.9,42.1,85,59,32,30.03,29.84,11,3,14,0.00
2013-7-24,79.0,63.8,50.0,55.0,51.0,45.3,86,66,38,30.10,29.95,8,2,11,0.00
2013-7-25,79.0,68.5,60.0,65.5,58.5,53.2,84,71,47,29.97,29.86,11,2,14,0.01
2013-7-26,68.0,59.3,48.0,60.0,52.1,40.1,90,78,61,30.10,29.89,17,4,27,0.05
2013-7-27,56.0,51.5,47.0,52.2,46.2,41.5,87,82,66,30.09,29.92,14,4,23,0.11
2013-7-28,71.0,58.4,49.0,52.6,48.3,44.4,87,71,50,30.05,29.95,11,3,17,0.00
2013-7-29,79.0,62.4,44.0,59.3,48.8,40.4,90,65,35,30.14,30.05,10,2,14,0.00
2013-7-30,70.0,64.7,58.0,60.5,57.3,53.5,85,77,70,30.13,30.06,8,2,10,0.00
2013-7-31,80.0,66.1,55.0,64.3,53.3,44.0,91,68,30,30.08,29.96,12,3,21,0.01
2013-8-1,81.0,64.0,47.0,58.2,49.5,42.7,87,63,34,30.04,29.87,14,3,22,0.00
2013-8-2,79.0,64.7,52.0,57.1,49.0,44.7,88,61,31,30.05,29.86,11,3,21,0.00
2013-8-3,79.0,62.4,46.0,54.0,45.8,41.3,87,59,28,30.21,30.05,13,2,20,0.00
2013-8-4,78.0,61.3,44.0,54.9,47.1,39.2,87,63,35,30.25,30.01,7,2,10,0.00
2013-8-5,81.0,66.0,58.0,65.2,58.5,50.0,89,78,52,30.01,29.78,10,2,21,0.30
2013-8-6,77.0,63.7,54.0,61.7,56.7,50.2,89,79,54,29.84,29.66,11,2,25,0.35
2013-8-7,79.0,64.4,51.0,60.4,52.1,45.0,92,68,34,30.03,29.79,14,3,15,0.00
2013-8-8,78.0,62.1,46.0,57.8,51.0,42.0,88,70,38,30.06,29.96,11,2,14,0.00
2013-8-9,76.0,61.4,47.0,59.7,49.1,43.6,91,67,37,30.10,29.98,16,3,24,0.00
2013-8-10,77.0,64.4,52.0,57.0,50.3,45.8,83,63,36,30.15,30.06,6,1,11,0.00
2013-8-11,81.0,64.8,47.0,62.4,50.6,42.7,89,64,35,30.11,29.97,6,2,14,0.06
2013-8-12,80.0,65.1,53.0,62.6,54.4,48.6,91,71,36,30.09,29.97,11,3,20,0.01
2013-8-13,77.0,60.4,43.0,56.4,45.9,39.4,90,63,31,30.19,30.09,8,2,14,0.00
2013-8-14,80.0,60.2,42.0,57.1,44.9,38.1,89,62,29,30.22,30.07,8,1,13,0.00
2013-8-15,81.0,64.3,49.0,59.7,49.9,45.0,89,64,32,30.14,30.03,7,2,11,0.00
2013-8-16,83.0,66.2,49.0,60.6,52.0,45.0,88,64,34,30.18,30.12,8,2,14,0.00
2013-8-17,83.0,66.9,50.0,59.8,50.3,45.3,87,60,31,30.18,30.05,11,3,18,0.00
2013-8-18,84.0,69.7,53.0,59.0,52.2,47.3,85,58,33,30.11,29.94,12,3,18,0.00
2013-8-19,86.0,77.0,72.0,63.9,63.0,62.0,74,63,47,29.90,29.86,6,2,16,0.00
2013-8-20,92.0,78.3,67.0,68.7,65.5,60.6,85,67,43,29.91,29.83,13,4,16,0.00
2013-8-21,90.0,75.9,62.0,74.1,65.4,53.9,90,72,35,30.02,29.83,11,2,16,0.00
2013-8-22,86.0,71.2,55.0,55.3,47.5,38.5,78,48,20,30.15,30.02,10,2,11,0.00
2013-8-23,89.0,68.7,45.0,59.9,50.0,40.8,88,57,26,30.18,30.02,8,2,11,0.00
2013-8-24,90.0,78.4,68.0,68.0,63.6,58.8,76,62,44,30.09,29.91,16,6,24,0.00
2013-8-25,98.0,84.7,75.0,70.8,68.4,66.1,76,60,38,30.00,29.88,13,4,19,0.00
2013-8-26,93.0,82.7,73.0,73.6,70.8,64.9,81,68,52,29.98,29.79,9,2,21,0.00
2013-8-27,88.0,76.7,67.0,73.7,69.3,63.0,87,79,58,29.93,29.79,10,2,13,0.00
2013-8-28,91.0,75.4,65.0,76.4,63.2,57.5,91,69,35,30.02,29.93,6,2,9,0.00
2013-8-29,94.0,78.5,64.0,73.7,66.2,58.7,86,68,40,30.02,29.81,18,3,33,0.48
2013-8-30,86.0,72.3,62.0,67.1,61.6,54.3,91,72,40,29.94,29.81,10,3,33,0.00
2013-8-31,89.0,70.7,55.0,66.8,58.9,50.9,90,69,40,29.92,29.71,13,2,23,0.00
2013-9-1,74.0,66.3,56.0,61.7,56.1,48.2,85,70,57,29.99,29.74,15,4,20,0.00
2013-9-2,70.0,57.3,45.0,51.5,47.1,39.5,85,70,44,30.11,29.99,7,2,11,0.00
2013-9-3,78.0,57.7,37.0,55.4,46.1,33.5,91,69,38,30.11,29.96,9,2,14,0.00
2013-9-4,81.0,64.8,56.0,61.6,54.5,48.9,87,71,42,30.17,30.00,12,2,13,0.00
2013-9-5,83.0,64.8,46.0,57.4,47.5,42.1,89,59,26,30.26,30.11,8,2,10,0.00
2013-9-6,92.0,76.5,61.0,66.7,60.3,51.3,84,61,31,30.12,29.85,12,3,20,0.00
2013-9-7,92.0,76.5,63.0,68.1,61.3,53.8,83,61,38,30.07,29.86,13,3,19,0.00
2013-9-8,68.0,60.5,56.0,56.7,53.1,47.2,89,77,49,30.11,29.91,8,2,13,0.68
2013-9-9,84.0,70.2,59.0,73.5,65.4,55.8,92,85,69,29.92,29.64,13,2,15,0.03
2013-9-10,82.0,71.2,63.0,68.7,62.9,54.9,92,77,47,29.97,29.74,8,2,16,0.07
2013-9-11,82.0,69.8,59.0,55.7,51.5,45.7,85,56,30,30.05,29.97,14,3,19,0.00
2013-9-12,71.0,57.5,44.0,54.5,46.1,37.9,89,68,39,30.23,30.05,14,3,22,0.00
2013-9-13,70.0,51.8,35.0,51.2,39.4,31.5,89,67,34,30.28,30.09,6,1,8,0.00
2013-9-14,72.0,55.3,42.0,52.5,45.7,37.2,88,73,39,30.10,29.91,9,2,16,0.68
2013-9-15,61.0,54.6,39.0,56.7,49.9,35.5,93,84,63,30.35,29.93,10,2,18,0.06
2013-9-16,67.0,48.6,33.0,49.5,36.8,30.4,92,68,34,30.48,30.26,7,2,11,0.00
2013-9-17,70.0,55.5,40.0,52.2,44.9,34.6,84,69,46,30.29,29.97,15,4,19,0.00
2013-9-18,69.0,63.7,57.0,64.3,59.7,51.5,91,87,82,29.96,29.72,10,3,14,0.02
2013-9-19,77.0,68.6,62.0,70.3,64.3,58.1,92,87,78,29.79,29.63,11,3,34,1.44
2013-9-20,63.0,56.7,46.0,58.4,51.3,41.1,92,82,61,29.92,29.76,13,3,21,0.06
2013-9-21,63.0,51.8,40.0,46.3,42.1,35.6,88,71,48,30.01,29.91,8,2,13,0.00
2013-9-22,69.0,52.4,36.0,48.6,42.3,32.5,91,71,46,30.06,29.90,10,3,17,0.00
2013-9-23,72.0,59.7,50.0,50.7,46.9,43.4,79,64,41,29.99,29.91,16,4,19,0.00
2013-9-24,75.0,59.6,49.0,52.5,47.4,43.4,85,67,37,30.02,29.93,10,2,12,0.00
2013-9-25,74.0,57.4,41.0,59.7,46.4,37.7,91,70,42,30.01,29.89,9,2,12,0.00
2013-9-26,77.0,63.6,49.0,56.3,51.7,43.4,85,67,47,29.97,29.87,15,4,21,0.00
2013-9-27,79.0,68.7,64.0,60.1,55.9,53.2,69,64,51,29.93,29.82,15,5,21,0.00
2013-9-30,76.0,69.5,65.0,50.6,48.6,45.9,55,48,39,29.63,29.61,11,4,22,0.00
2013-10-1,73.0,65.2,59.0,51.7,44.9,31.0,72,51,22,29.83,29.56,13,5,25,0.00
2013-10-2,72.0,72.0,72.0,32.1,32.1,32.1,23,23,23,29.82,29.82,6,6,21,0.00
2013-10-3,53.0,52.4,52.0,50.7,50.1,49.7,92,92,92,29.99,29.97,6,4,11,0.00
2013-10-4,60.0,54.2,52.0,53.1,50.8,48.9,93,89,76,30.06,29.93,13,5,19,0.05
2013-10-5,57.0,53.0,50.0,55.0,51.0,48.3,94,93,91,29.94,29.74,11,4,19,0.94
2013-10-6,53.0,48.0,37.0,51.3,46.3,35.4,96,94,89,29.86,29.70,10,2,16,0.05
2013-10-7,63.0,45.9,32.0,53.4,38.8,30.7,96,79,39,30.01,29.86,11,2,13,0.01
2013-10-8,75.0,59.2,38.0,47.3,42.0,34.2,88,57,31,30.00,29.81,17,5,24,0.00
2013-10-9,75.0,62.9,54.0,50.1,46.3,42.6,74,56,38,30.04,29.92,12,4,18,0.00
2013-10-10,75.0,61.4,52.0,48.4,45.5,42.5,75,58,36,30.04,29.91,14,4,19,0.00
2013-10-11,75.0,65.0,55.0,57.7,49.1,45.6,76,58,42,29.92,29.64,21,6,29,0.00
2013-10-12,67.0,34.1,0.0,54.6,47.4,39.9,100,80,57,29.89,29.67,13,5,24,0.00
2013-10-13,0.0,0.0,0.0,53.0,53.0,53.0,100,100,100,29.89,29.89,5,5,0,0.00
2013-10-14,52.0,25.3,0.0,53.0,45.8,35.8,100,82,57,30.35,29.89,8,4,12,0.00
2013-10-15,50.0,47.3,44.0,46.9,43.6,38.8,90,87,73,30.07,29.70,13,4,19,0.00
2013-10-16,53.0,43.5,34.0,41.7,37.3,27.5,89,80,55,29.97,29.86,12,3,14,0.00
2013-10-17,54.0,43.0,34.0,43.5,37.6,29.1,87,81,63,29.91,29.78,10,2,16,0.00
2013-10-18,51.0,42.5,36.0,41.1,34.3,29.1,90,74,45,29.98,29.86,12,4,19,0.00
2013-10-19,45.0,38.1,28.0,39.2,32.6,23.2,89,81,68,29.87,29.72,9,2,12,0.00
2013-10-20,35.0,31.1,26.0,31.8,27.9,22.1,91,88,83,29.86,29.69,8,2,12,0.00
2013-10-21,36.0,32.8,30.0,30.7,25.6,22.0,91,75,60,29.94,29.86,16,4,23,0.00
2013-10-22,39.0,32.4,28.0,31.0,25.7,20.1,83,76,63,30.05,29.94,8,2,11,0.00
2013-10-23,35.0,31.7,29.0,30.8,25.5,21.3,88,78,64,30.14,30.00,10,2,15,0.00
2013-10-24,40.0,35.1,30.0,30.7,26.3,21.7,79,70,59,30.31,30.13,14,3,16,0.00
2013-10-25,51.0,40.7,29.0,39.2,30.8,23.3,83,69,54,30.31,29.75,14,3,26,0.00
2013-10-26,48.0,41.4,37.0,37.9,28.6,25.6,69,61,51,30.10,29.76,15,6,24,0.00
2013-10-27,53.0,39.8,29.0,32.7,27.3,21.7,80,62,45,30.22,29.82,14,4,18,0.00
2013-10-28,42.0,33.2,25.0,26.8,21.0,16.9,73,62,41,30.50,30.22,11,3,18,0.00
2013-10-29,36.0,31.6,23.0,30.9,25.6,16.6,85,78,68,30.46,30.16,9,2,11,0.00
2013-10-30,47.0,41.4,35.0,43.9,38.0,30.9,89,88,85,30.16,29.70,6,2,9,0.00
2013-10-31,47.0,43.9,40.0,44.2,41.4,37.9,92,91,89,29.70,29.41,12,3,13,0.00
2013-11-1,44.0,39.7,35.0,40.3,35.8,29.5,93,86,76,29.87,29.42,10,4,15,0.00
2013-11-2,47.0,36.9,27.0,33.6,28.4,20.4,84,72,52,30.14,29.86,8,2,10,0.00
2013-11-3,51.0,40.3,25.0,34.4,28.9,19.7,83,65,49,30.17,29.96,18,5,24,0.00
2013-11-4,47.0,42.8,31.0,40.5,33.9,25.9,85,72,56,30.17,29.86,15,5,24,0.00
2013-11-5,42.0,33.2,25.0,34.7,27.8,21.7,89,81,64,30.27,30.08,8,2,10,0.00
2013-11-6,38.0,31.0,26.0,30.1,25.3,19.2,89,80,59,30.19,30.06,10,3,16,0.00
2013-11-7,38.0,27.0,19.0,28.8,20.7,15.0,87,77,53,30.24,30.18,8,1,12,0.00
2013-11-8,40.0,30.6,18.0,32.0,24.5,14.3,87,79,64,30.23,29.64,13,3,25,0.00
2013-11-9,40.0,37.9,36.0,35.2,30.5,25.2,88,75,62,30.20,29.64,18,6,32,0.00
2013-11-10,42.0,36.3,28.0,27.5,25.4,19.5,77,65,55,30.33,30.13,14,4,22,0.00
2013-11-11,33.0,20.5,9.0,25.6,7.8,1.2,74,58,45,30.75,30.18,16,6,21,0.00
2013-11-12,28.0,17.0,7.0,11.2,5.7,0.5,81,62,40,30.78,30.42,9,2,15,0.00
2013-11-13,48.0,33.0,19.0,29.0,20.6,9.9,74,61,42,30.42,29.87,14,4,20,0.00
2013-11-14,50.0,36.9,26.0,35.3,28.8,21.0,82,73,56,29.87,29.76,6,2,9,0.00
2013-11-15,52.0,38.6,26.0,40.5,31.4,21.3,88,76,56,29.89,29.67,10,3,13,0.00
2013-11-16,46.0,42.8,40.0,42.6,37.2,31.7,88,81,72,29.67,29.32,12,4,19,0.00
2013-11-17,44.0,38.4,28.0,41.0,34.1,20.8,91,84,74,29.84,29.33,24,6,29,0.00
2013-11-18,29.0,25.6,15.0,21.1,17.3,9.4,78,70,65,30.30,29.84,19,6,28,0.00
2013-11-19,42.0,28.7,13.0,26.5,18.8,8.0,83,68,52,30.33,29.94,19,5,24,0.00
2013-11-20,44.0,40.2,35.0,29.5,25.1,21.6,80,56,44,30.09,29.93,14,6,23,0.00
2013-11-21,35.0,29.4,21.0,31.5,22.5,10.7,88,76,61,30.56,30.08,17,4,19,0.00
2013-11-22,31.0,19.5,9.0,14.0,7.6,-1.7,80,61,31,30.69,30.43,19,5,24,0.00
2013-11-23,17.0,8.2,-3.0,2.9,-1.7,-9.8,74,64,47,30.87,30.69,13,4,19,0.00
2013-11-24,29.0,17.1,-3.0,15.9,5.8,-9.5,77,62,46,30.73,29.94,21,6,27,0.00
2013-11-25,38.0,31.9,26.0,26.5,19.3,11.2,76,60,47,30.11,29.89,18,7,23,0.00
2013-11-26,26.0,16.5,5.0,16.9,4.7,-2.0,74,60,47,30.42,30.10,19,7,30,0.00
2013-11-27,22.0,12.6,-2.0,12.1,3.5,-7.4,81,67,55,30.44,30.12,8,2,10,0.00
2013-11-28,24.0,18.9,4.0,13.3,8.2,-2.7,74,63,56,30.56,30.12,14,2,16,0.00
2013-11-29,29.0,18.3,1.0,18.7,9.4,-5.1,80,68,56,30.58,30.14,15,3,18,0.00
2013-11-30,37.0,28.3,18.0,25.6,19.2,11.7,78,69,59,30.22,30.06,6,2,11,0.00
2013-12-1,31.0,22.1,12.0,25.3,16.5,7.0,84,79,73,30.24,29.97,5,1,8,0.00
2013-12-2,34.0,29.5,22.0,30.3,25.5,17.1,88,85,81,29.98,29.68,8,2,10,0.00
2013-12-3,33.0,31.6,28.0,30.4,28.8,24.9,90,89,88,29.88,29.68,10,2,19,0.00
2013-12-4,29.0,26.3,16.0,26.2,23.3,11.5,90,88,82,29.87,29.46,16,4,20,0.00
2013-12-5,16.0,4.3,-6.0,11.5,-1.7,-11.1,82,76,68,30.36,29.67,16,6,23,0.00
2013-12-6,2.0,-6.2,-14.0,-5.9,-11.9,-19.4,80,75,68,30.67,30.36,10,2,13,0.00
2013-12-7,-1.0,-13.5,-24.0,-9.8,-19.8,-29.3,79,73,63,30.76,30.63,10,1,14,0.00
2013-12-8,11.0,-1.3,-21.0,5.5,-6.7,-26.9,80,77,73,30.63,30.08,7,1,8,0.00
2013-12-9,1.0,-4.8,-10.0,-3.7,-10.6,-16.8,82,76,66,30.15,29.94,18,3,24,0.00
2013-12-10,5.0,-2.1,-10.0,-3.9,-8.3,-14.8,80,75,65,30.37,29.88,14,2,18,0.00
2013-12-11,-1.0,-8.6,-20.0,-9.6,-15.1,-25.2,78,73,61,30.60,30.35,10,2,14,0.00
2013-12-12,13.0,3.6,-10.0,5.6,-2.8,-15.5,81,74,67,30.35,30.22,6,1,12,0.00
2013-12-13,12.0,8.0,5.0,5.6,1.9,-1.7,78,76,72,30.40,30.24,10,4,14,0.00
2013-12-14,14.0,7.4,0.0,8.1,2.2,-5.2,81,79,75,30.37,30.12,10,3,15,0.00
2013-12-15,0.0,-6.8,-18.0,-5.2,-14.0,-25.1,78,70,59,30.25,30.15,11,3,16,0.00
2013-12-16,15.0,4.8,-6.0,11.3,-0.9,-11.8,85,77,69,30.21,29.89,11,2,17,0.00
2013-12-17,28.0,16.9,-5.0,21.3,10.6,-11.1,88,76,61,30.17,29.88,21,4,27,0.00
2013-12-18,32.0,15.2,-3.0,20.8,8.0,-8.7,79,73,62,30.14,29.69,8,2,16,0.00
2013-12-19,16.0,13.9,10.0,11.2,7.8,4.0,82,76,70,30.18,29.90,11,4,16,0.00
2013-12-20,21.0,10.4,3.0,15.2,5.3,-1.2,84,80,72,30.13,29.92,6,1,16,0.00
2013-12-21,21.0,15.0,10.0,15.5,10.2,5.6,83,81,76,30.10,29.92,6,1,10,0.00
2013-12-22,19.0,15.5,7.0,14.4,11.0,2.9,84,82,77,30.28,30.02,11,4,13,0.00
2013-12-23,7.0,-0.1,-9.0,2.9,-4.9,-14.0,83,79,76,30.55,30.28,12,4,15,0.00
2013-12-24,8.0,-2.4,-19.0,3.4,-7.6,-24.0,81,78,72,30.54,30.19,11,3,14,0.00
2013-12-25,20.0,12.0,7.0,15.4,7.6,2.4,84,82,79,30.19,30.09,10,2,13,0.00
2013-12-26,20.0,12.9,6.0,13.7,7.9,0.9,84,80,75,30.23,30.14,2,0,5,0.00
2013-12-27,38.0,23.7,6.0,29.1,18.5,0.9,87,81,69,30.23,29.88,15,3,17,0.00
2013-12-28,34.0,26.3,13.0,31.4,23.1,9.1,90,88,84,30.14,29.74,21,4,23,0.00
2013-12-29,12.0,-9.3,-27.0,8.1,-17.6,-33.7,84,66,56,30.39,30.14,16,3,23,0.00
2013-12-30,-3.0,-14.5,-28.0,-9.8,-20.7,-34.7,78,73,69,30.37,30.25,2,0,4,0.00
2013-12-31,-4.0,-15.1,-26.0,-12.8,-21.6,-31.3,78,72,64,30.53,30.25,8,1,10,0.00
2014-1-1,-1.0,-7.6,-16.0,-9.0,-14.8,-22.1,73,70,67,30.58,30.50,6,1,8,0.00
2014-1-2,3.0,-14.3,-25.0,-9.9,-23.0,-31.9,74,64,51,30.57,30.42,7,0,10,0.00